(95471) = 2002 EE

Discovered at Eskridge on 2002-03-03 by G. Hug.

Orbit

Orbit type: Main Belt

Note: WebGL enabled browser required.

epoch2023-09-13.0
epoch JD2460200.5
perihelion date2022-12-18.17293
perihelion JD2459931.67293
argument of perihelion (°)25.12747
ascending node (°)292.42661
inclination (°)5.43592
eccentricity0.1045513
perihelion distance (AU)2.5032871
Tisserand w.r.t. Jupiter3.3
ΔV w.r.t. Earth (km/sec)10.0
semimajor axis (AU)2.7955674
mean anomaly (°)56.68549
mean daily motion (°/day)0.21086230
aphelion distance (AU)3.088
period (years)4.67
P-vector [x]0.73614941
P-vector [y]-0.63587281
P-vector [z]-0.23184005
Q-vector [x]0.67113034
Q-vector [y]0.64148195
Q-vector [z]0.37159787
absolute magnitude15.36
phase slope0.15
uncertainty0
referenceMPEC 2024-A55
observations used804
oppositions18
arc length (days)8885
first opposition used1999
last opposition used2023
residual rms (arc-secs)0.73
perturbers coarse indicatorM-v
perturbers precise indicator003Ek
first observation date used1999-08-07.0
last observation date used2023-12-04.0
computer nameMPCLINUX
JD of orbit computation2456966.764966
perihelion JD uncertainty (days)1.1407E-04
argument of perihelion uncertainty (°)6.4924E-05
ascending node uncertainty (°)6.0110E-05
inclination uncertainty (°)5.1573E-06
eccentricity uncertainty 5.5245E-08
perihelion distance uncertainty (AU)1.6235E-07
Minimum Orbit Intersection Distances (in AU)
for orbit epoch: 2460200.5, reference: E2024-A55
Mercury2.07733
Venus1.77917
Earth1.49037
Mars1.11103
Jupiter2.15515
Saturn6.03308
Uranus15.3966
Neptune27.0624

Observations

825 total observations over interval: 1999 08 07.27896 – 2023 12 04.260813
These data are available for download (format description).

Date (UT) J2000 RA J2000 Dec Magn Location Ref
1999 08 07.27896 21 12 06.24 -12 27 56.2 18.0 R 699 – Lowell Observatory-LONEOS MPS 59891
1999 08 07.30441 21 12 04.86 -12 27 58.5   699 – Lowell Observatory-LONEOS MPS 59891
1999 08 07.32987 21 12 03.43 -12 28 00.5   699 – Lowell Observatory-LONEOS MPS 59891
1999 10 13.08554 20 50 41.03 -13 00 46.1 19.3   704 – Lincoln Laboratory ETS, New Mexico MPS 55647
1999 10 13.10114 20 50 41.48 -13 00 44.8 19.3   704 – Lincoln Laboratory ETS, New Mexico MPS 55647
1999 10 13.11669 20 50 41.88 -13 00 42.8 19.5   704 – Lincoln Laboratory ETS, New Mexico MPS 55647
1999 10 13.13350 20 50 42.34 -13 00 41.8 19.4   704 – Lincoln Laboratory ETS, New Mexico MPS 55647
2000 11 30.31681 04 26 03.96 +27 30 19.7 19.1   704 – Lincoln Laboratory ETS, New Mexico MPS 55647
2000 11 30.33190 04 26 03.12 +27 30 17.2 19.2   704 – Lincoln Laboratory ETS, New Mexico MPS 55647
2000 11 30.34718 04 26 02.19 +27 30 14.7 19.3   704 – Lincoln Laboratory ETS, New Mexico MPS 55647
2000 11 30.36224 04 26 01.28 +27 30 10.6 19.3   704 – Lincoln Laboratory ETS, New Mexico MPS 55647
2002 02 06.41064 10 04 18.81 +07 08 34.2 20.5   644 – Palomar Mountain/NEAT MPS 55647
2002 02 06.42110 10 04 18.27 +07 08 36.0 20.4   644 – Palomar Mountain/NEAT MPS 55647
2002 02 06.43164 10 04 17.77 +07 08 37.8 20.6   644 – Palomar Mountain/NEAT MPS 55647
2002 02 11.30882 10 00 10.28 +07 23 21.5 19.5   704 – Lincoln Laboratory ETS, New Mexico MPS 55647
2002 02 11.35154 10 00 07.93 +07 23 29.1 19.9   704 – Lincoln Laboratory ETS, New Mexico MPS 55647
2002 02 11.36581 10 00 07.21 +07 23 32.5 20.0   704 – Lincoln Laboratory ETS, New Mexico MPS 55647
2002 02 16.44235 09 55 42.04 +07 40 18.0 20.3   644 – Palomar Mountain/NEAT MPS 55647
2002 02 16.45400 09 55 41.44 +07 40 20.6 19.9   644 – Palomar Mountain/NEAT MPS 55647
2002 02 16.46797 09 55 40.68 +07 40 23.6 19.9   644 – Palomar Mountain/NEAT MPS 55647
2002 02 20.25621 09 52 22.48 +07 53 29.9 20.2   704 – Lincoln Laboratory ETS, New Mexico MPS 55647
2002 02 20.27033 09 52 21.77 +07 53 33.2 20.0   704 – Lincoln Laboratory ETS, New Mexico MPS 55647
2002 02 20.28426 09 52 21.01 +07 53 36.7 19.8   704 – Lincoln Laboratory ETS, New Mexico MPS 55647
2002 02 20.31890 09 52 19.12 +07 53 44.4 19.3 R 699 – Lowell Observatory-LONEOS MPS 55647
2002 02 20.33134 09 52 18.48 +07 53 45.8   699 – Lowell Observatory-LONEOS MPS 55647
2002 02 20.34380 09 52 17.82 +07 53 48.6   699 – Lowell Observatory-LONEOS MPS 55647
2002 02 20.35625 09 52 17.16 +07 53 51.2   699 – Lowell Observatory-LONEOS MPS 55647
2002 03 03.11080 09 43 19.51 +08 31 37.3 19.3 R 734 – Farpoint Observatory, Eskridge MPS 52802
2002 03 03.13552 09 43 18.35 +08 31 43.9 19.6 R 734 – Farpoint Observatory, Eskridge MPS 52802
2002 03 05.18054 09 41 43.77 +08 38 40.5 19.4 R 734 – Farpoint Observatory, Eskridge MPS 52802
2002 03 05.19689 09 41 42.82 +08 38 45.3 19.7 R 734 – Farpoint Observatory, Eskridge MPS 52802
2002 03 06.13810 09 41 00.77 +08 41 53.1 19.4 R 734 – Farpoint Observatory, Eskridge MPS 52802
2002 03 06.14587 09 41 00.35 +08 41 54.8 18.8 R 734 – Farpoint Observatory, Eskridge MPS 52802
2002 03 06.15372 09 40 59.95 +08 41 56.0 19.3 R 734 – Farpoint Observatory, Eskridge MPS 52802
2002 03 10.12977 09 38 09.78 +08 54 52.1 19.7 R 734 – Farpoint Observatory, Eskridge MPS 52802
2002 03 10.14657 09 38 09.06 +08 54 57.4 20.0 R 734 – Farpoint Observatory, Eskridge MPS 52802
2002 03 10.15506 09 38 08.66 +08 54 58.8 20.2 R 734 – Farpoint Observatory, Eskridge MPS 52802
2002 03 10.16685 09 38 08.15 +08 55 02.2 20.1 R 734 – Farpoint Observatory, Eskridge MPS 52802
2002 03 13.19024 09 36 09.43 +09 04 19.6 19.7   704 – Lincoln Laboratory ETS, New Mexico MPS 55647
2002 03 13.21720 09 36 08.33 +09 04 23.7 20.0   704 – Lincoln Laboratory ETS, New Mexico MPS 55647
2002 03 13.23073 09 36 07.82 +09 04 26.3 20.1   704 – Lincoln Laboratory ETS, New Mexico MPS 55647
2002 03 13.24428 09 36 07.25 +09 04 29.6 20.2   704 – Lincoln Laboratory ETS, New Mexico MPS 55647
2002 03 16.17487 09 34 22.19 +09 12 57.2 19.5 R 734 – Farpoint Observatory, Eskridge MPS 52802
2002 03 16.18337 09 34 21.80 +09 12 59.0 19.8 R 734 – Farpoint Observatory, Eskridge MPS 52802
2002 03 16.19424 09 34 21.39 +09 13 01.3 20.1 R 734 – Farpoint Observatory, Eskridge MPS 52802
2003 05 26.27495 15 13 06.21 -25 19 35.4 19.5 R 734 – Farpoint Observatory, Eskridge MPS 80074
2003 05 26.28431 15 13 05.76 -25 19 32.4 19.0 R 734 – Farpoint Observatory, Eskridge MPS 80074
2004 08 12.29778 00 08 01.89 +08 07 26.7 18.9 C 704 – Lincoln Laboratory ETS, New Mexico MPS 289726
2004 08 12.30810 00 08 01.75 +08 07 27.3 19.2 C 704 – Lincoln Laboratory ETS, New Mexico MPS 289726
2004 08 12.32866 00 08 01.35 +08 07 29.5 19.0 C 704 – Lincoln Laboratory ETS, New Mexico MPS 289726
2004 08 12.33865 00 08 01.17 +08 07 31.7 18.9 C 704 – Lincoln Laboratory ETS, New Mexico MPS 289726
2004 08 17.31599 00 06 24.34 +08 14 08.7 19.6   704 – Lincoln Laboratory ETS, New Mexico MPS 111848
2004 08 17.32631 00 06 24.03 +08 14 08.6 19.7   704 – Lincoln Laboratory ETS, New Mexico MPS 111848
2004 08 17.33644 00 06 23.76 +08 14 10.8 19.6   704 – Lincoln Laboratory ETS, New Mexico MPS 111848
2004 09 10.23879 23 51 25.16 +07 43 27.4 19.2   704 – Lincoln Laboratory ETS, New Mexico MPS 112803
2004 09 10.25061 23 51 24.58 +07 43 25.1 19.2   704 – Lincoln Laboratory ETS, New Mexico MPS 112803
2004 09 10.26252 23 51 23.96 +07 43 22.7 19.6   704 – Lincoln Laboratory ETS, New Mexico MPS 112803
2004 09 10.27436 23 51 23.39 +07 43 20.4 19.4   704 – Lincoln Laboratory ETS, New Mexico MPS 112803
2004 09 10.28663 23 51 22.76 +07 43 17.5 19.4   704 – Lincoln Laboratory ETS, New Mexico MPS 112803
2004 09 13.23797 23 48 58.28 +07 32 56.7 19.2   704 – Lincoln Laboratory ETS, New Mexico MPS 112803
2004 09 13.25008 23 48 57.64 +07 32 54.0 19.3   704 – Lincoln Laboratory ETS, New Mexico MPS 112803
2004 09 13.26228 23 48 57.01 +07 32 50.9 19.2   704 – Lincoln Laboratory ETS, New Mexico MPS 112803
2004 09 13.27483 23 48 56.38 +07 32 48.4 18.8   704 – Lincoln Laboratory ETS, New Mexico MPS 112803
2004 09 13.28714 23 48 55.68 +07 32 45.6 19.2   704 – Lincoln Laboratory ETS, New Mexico MPS 112803
2004 09 14.25585 23 48 07.78 +07 29 06.1 18.2 R 699 – Lowell Observatory-LONEOS MPS 121061
2004 09 14.27531 23 48 06.75 +07 29 01.2   699 – Lowell Observatory-LONEOS MPS 121061
2004 09 14.29480 23 48 05.74 +07 28 57.6   699 – Lowell Observatory-LONEOS MPS 121061
2004 09 14.31427 23 48 04.68 +07 28 52.8   699 – Lowell Observatory-LONEOS MPS 121061
2004 09 18.25142 23 44 47.43 +07 12 50.8 19.3   704 – Lincoln Laboratory ETS, New Mexico MPS 114321
2004 09 18.26357 23 44 46.87 +07 12 47.3 19.5   704 – Lincoln Laboratory ETS, New Mexico MPS 114321
2004 09 18.27575 23 44 46.19 +07 12 44.6 19.7   704 – Lincoln Laboratory ETS, New Mexico MPS 114321
2004 09 18.28789 23 44 45.61 +07 12 41.1 19.7   704 – Lincoln Laboratory ETS, New Mexico MPS 114321
2004 09 18.30010 23 44 44.97 +07 12 37.9 19.7   704 – Lincoln Laboratory ETS, New Mexico MPS 114321
2004 09 22.23048 23 41 28.59 +06 55 06.7 18.4   704 – Lincoln Laboratory ETS, New Mexico MPS 114321
2004 09 22.24261 23 41 27.93 +06 55 03.4 18.9   704 – Lincoln Laboratory ETS, New Mexico MPS 114321
2004 09 22.25474 23 41 27.31 +06 54 59.9 18.4   704 – Lincoln Laboratory ETS, New Mexico MPS 114321
2004 09 22.26688 23 41 26.73 +06 54 56.4 19.0   704 – Lincoln Laboratory ETS, New Mexico MPS 114321
2004 09 22.27905 23 41 26.06 +06 54 53.2 18.8   704 – Lincoln Laboratory ETS, New Mexico MPS 114321
2004 09 24.23200 23 39 50.00 +06 45 42.9 19.0   704 – Lincoln Laboratory ETS, New Mexico MPS 115240
2004 09 24.24440 23 39 49.35 +06 45 39.4 18.8   704 – Lincoln Laboratory ETS, New Mexico MPS 115240
2004 09 24.25681 23 39 48.71 +06 45 36.1 19.0   704 – Lincoln Laboratory ETS, New Mexico MPS 115240
2004 09 24.26920 23 39 48.05 +06 45 32.1 19.2   704 – Lincoln Laboratory ETS, New Mexico MPS 115240
2004 09 24.28162 23 39 47.43 +06 45 29.2 19.0   704 – Lincoln Laboratory ETS, New Mexico MPS 115240
2004 10 07.23037 23 30 09.45 +05 41 36.5 18.5   704 – Lincoln Laboratory ETS, New Mexico MPS 115712
2004 10 07.24198 23 30 09.00 +05 41 33.2 19.3   704 – Lincoln Laboratory ETS, New Mexico MPS 115712
